Temp
60 59 60 60 59 57 53 49 45 61 64 48 47 44 55 58 61 60 58 57 56 50 51 48 49 53 54 56 55 52 55 47 41 46 52 55 51 49 49 39 40 41 35 36
60 59 59 59 58 55 50 46 48 59 60 42 44 52 57 61 59 59 57 55 58 58 55 49 52 52 54 56 55 51 51 46 38 41 46 49 46 51 52 48 41 38 33 38
60 59 59 58 58 57 50 46 43 49 51 49 47 49 52 54 59 58 58 56 57 53 54 57 51 50 53 53 55 57 52 46 43 38 41 46 43 49 50 46 35 37 38 41
60 60 59 59 58 57 51 46 44 48 42 46 47 49 53 53 54 56 57 54 55 53 48 51 51 50 50 53 56 53 49 43 46 47 50 50 49 50 49 46 45 39 43 45
59 60 59 59 58 56 48 43 44 47 44 48 46 48 50 53 56 56 54 52 56 53 48 48 48 51 48 47 49 47 50 43 45 44 50 49 47 50 49 48 48 46 46 44
59 59 59 58 57 54 47 49 51 48 44 43 43 47 52 54 55 55 57 53 51 53 52 52 51 52 52 52 50 48 47 43 40 36 47 46 40 46 48 49 50 50 42 46
59 59 59 58 57 55 48 47 48 42 41 45 48 53 54 53 55 51 54 53 49 52 57 57 54 52 53 53 50 51 47 45 40 31 40 30 45 49 50 50 52 49 49 50
59 58 59 59 58 56 49 49 46 43 38 46 49 51 51 52 54 52 52 52 53 53 52 47 44 43 45 47 49 48 47 44 36 32 31 41 44 48 46 45 44 52 49 49
59 58 58 58 58 57 50 49 49 50 40 41 51 46 49 47 44 47 49 52 54 53 48 46 35 35 43 40 43 48 49 46 40 34 28 28 43 48 52 49 35 49 51 49
59 59 58 58 58 57 52 49 52 47 43 46 49 44 46 51 46 44 45 46 47 50 43 40 35 40 48 39 39 36 38 36 32 31 26 36 47 49 50 35 37 49 51 49
59 59 58 57 56 57 53 51 52 49 45 47 52 53 47 48 46 43 47 46 46 42 40 39 40 37 43 41 43 40 37 30 30 32 27 30 49 47 43 45 46 50 48 46
59 58 58 57 56 56 55 49 54 54 48 47 52 55 55 54 53 47 46 47 48 48 42 42 42 40 39 40 35 43 36 42 37 37 37 47 48 47 48 49 48 47 47 46
58 57 57 57 57 56 53 48 49 49 47 49 48 48 58 56 55 53 44 47 53 53 51 47 45 42 41 36 38 39 42 46 41 41 45 47 50 48 50 50 49 49 48 48
58 57 57 57 57 55 53 47 48 49 46 41 43 55 50 56 54 54 52 51 54 52 48 47 41 36 45 40 43 41 44 45 42 40 45 45 49 49 49 50 49 49 49 49
58 57 57 57 56 55 49 45 47 52 46 41 43 50 53 54 52 52 53 51 49 45 47 43 39 42 42 39 39 37 44 44 39 39 47 46 45 49 50 48 47 47 47 46
57 57 57 56 55 54 46 39 46 50 50 43 37 48 50 51 51 50 50 50 47 46 47 42 41 44 42 30 29 44 47 48 49 48 47 48 48 50 50 48 47 48 47 47
56 56 56 55 55 48 43 42 46 50 52 43 37 39 47 49 49 47 47 48 45 46 44 41 41 41 41 29 30 46 49 50 48 48 48 44 45 46 49 49 49 51 48 48
56 55 54 54 53 50 46 46 50 50 46 45 36 38 40 45 41 41 45 44 42 44 41 40 40 40 37 31 41 45 47 47 46 47 47 47 47 47 47 47 47 45 45 46
55 54 52 47 46 43 45 53 52 49 45 34 36 33 32 44 42 41 42 43 35 41 37 39 39 34 31 42 43 46 47 48 46 46 46 46 45 44 45 45 45 43 44 45
53 46 43 38 43 51 50 45 42 42 41 41 35 40 36 41 38 36 37 36 34 31 37 38 30 34 42 46 47 48 49 48 47 43 41 42 41 43 43 43 45 45 45 44
42 40 36 42 51 44 42 36 35 34 33 39 38 41 38 45 39 37 38 32 36 28 35 35 30 30 40 45 46 47 48 48 47 46 46 46 46 44 44 44 45 45 44 43
43 42 45 44 40 37 33 31 34 33 33 36 39 41 43 43 45 38 33 35 32 27 35 27 29 36 42 44 45 45 46 47 47 48 47 46 47 46 45 44 44 43 43 43
43 40 37 35 33 27 28 27 30 33 36 39 40 39 41 41 42 36 34 29 27 34 25 29 32 38 42 42 44 44 45 47 46 46 46 46 45 46 46 43 43 43 42 42
36 33 28 28 26 29 32 31 32 39 40 45 47 38 40 39 37 34 30 31 30 23 23 30 36 38 41 42 43 44 43 45 45 45 46 45 45 44 44 44 43 42 40 41
34 33 26 28 32 35 36 39 40 43 46 48 41 38 39 33 34 33 28 25 22 28 30 33 38 42 42 41 41 42 43 44 44 44 44 43 43 43 41 42 42 41 40 39
35 33 32 34 31 31 35 39 39 43 47 47 43 36 34 33 33 26 27 25 28 33 34 38 41 42 43 42 43 43 43 43 43 42 43 43 42 41 40 40 40 40 40 38
31 30 36 33 34 36 39 42 41 49 47 38 35 33 34 31 20 22 28 30 36 37 37 42 43 43 43 43 44 45 45 43 42 41 42 41 41 40 39 37 38 39 39 38
MSLP
1019.79 1019.74 1019.49 1019.14 1018.72 1018.76 1018.82 1018.61 1017.76 1015.63 1015.12 1016.46 1016.78 1016.20 1014.08 1012.50 1011.43 1011.36 1011.29 1011.43 1011.61 1011.91 1011.46 1011.31 1011.10 1011.16 1011.39 1011.67 1011.60 1011.24 1011.04 1010.91 1011.01 1010.61 1010.16 1009.88 1009.80 1009.92 1010.35 1011.72 1012.62 1012.73 1013.11 1013.30
1019.53 1019.55 1019.42 1019.23 1018.99 1018.84 1019.21 1018.62 1017.46 1015.77 1015.56 1016.35 1016.36 1015.20 1014.17 1012.89 1011.50 1011.09 1011.00 1011.06 1011.07 1011.00 1010.93 1011.31 1011.03 1011.20 1011.61 1011.56 1011.60 1011.74 1011.80 1011.46 1011.42 1011.05 1010.72 1010.18 1009.97 1009.92 1010.28 1011.09 1012.16 1012.92 1013.49 1013.44
1019.52 1019.34 1019.53 1019.20 1018.86 1018.72 1019.26 1018.96 1018.00 1016.98 1016.59 1016.17 1016.19 1015.57 1014.20 1012.84 1011.70 1011.37 1010.96 1010.99 1010.85 1010.95 1010.79 1010.62 1011.04 1011.48 1011.76 1011.93 1012.06 1012.03 1012.06 1011.60 1011.29 1011.00 1010.57 1010.30 1010.11 1009.89 1010.18 1011.02 1012.39 1012.74 1012.90 1013.14
1019.36 1019.20 1019.27 1019.39 1019.07 1018.65 1019.13 1018.90 1018.19 1017.13 1017.08 1016.56 1016.25 1015.64 1014.50 1013.26 1012.11 1011.59 1011.14 1010.82 1010.95 1011.14 1011.03 1010.85 1010.98 1011.44 1011.85 1012.00 1011.96 1011.87 1011.90 1011.87 1011.35 1010.99 1010.47 1010.21 1010.06 1009.99 1010.29 1010.89 1011.48 1012.16 1012.49 1012.69
1019.32 1019.11 1019.06 1019.08 1019.14 1019.09 1019.04 1018.96 1018.45 1017.57 1017.35 1016.59 1016.01 1015.20 1014.12 1013.35 1012.05 1011.49 1011.36 1011.29 1010.96 1011.03 1011.26 1011.37 1011.36 1011.45 1011.62 1011.72 1012.04 1011.96 1012.01 1012.14 1011.79 1011.54 1011.06 1010.81 1010.67 1010.43 1010.53 1010.79 1011.11 1011.50 1012.04 1012.60
1019.05 1019.04 1018.95 1018.94 1019.11 1019.21 1019.05 1018.34 1018.00 1018.07 1017.53 1016.99 1016.45 1015.45 1014.51 1013.96 1012.44 1011.86 1011.49 1011.60 1011.58 1011.36 1011.41 1011.39 1011.38 1011.47 1011.52 1011.53 1011.87 1012.16 1012.35 1012.53 1012.78 1012.63 1011.96 1011.54 1011.28 1010.62 1010.60 1010.67 1010.72 1011.19 1011.96 1012.42
1018.69 1018.78 1018.51 1018.51 1018.87 1019.14 1019.31 1019.03 1018.78 1018.82 1018.00 1017.11 1016.31 1015.29 1015.00 1014.08 1013.16 1012.45 1012.18 1012.03 1012.04 1011.99 1011.68 1011.64 1011.51 1011.66 1011.77 1011.86 1012.18 1012.19 1012.68 1013.10 1013.52 1013.86 1013.20 1012.51 1011.26 1010.83 1010.75 1010.72 1010.82 1011.18 1012.03 1012.74
1018.26 1018.39 1018.29 1018.18 1018.41 1018.88 1019.22 1019.04 1019.07 1018.99 1018.37 1017.31 1016.47 1015.66 1015.06 1014.15 1013.21 1012.57 1012.65 1012.78 1012.89 1012.50 1012.31 1012.62 1012.59 1012.43 1012.42 1012.49 1012.61 1012.83 1013.15 1013.65 1014.49 1014.85 1014.58 1013.17 1011.86 1011.28 1011.14 1010.98 1011.41 1011.47 1012.17 1013.07
1017.83 1018.01 1018.07 1017.99 1018.02 1018.50 1018.95 1018.88 1018.75 1019.03 1018.72 1017.51 1016.57 1015.95 1015.24 1014.77 1013.83 1013.38 1013.22 1013.05 1012.99 1012.95 1013.15 1013.37 1013.45 1013.04 1012.42 1012.75 1012.93 1013.05 1013.50 1014.02 1015.06 1015.80 1015.63 1014.18 1012.30 1011.66 1011.40 1011.51 1011.88 1011.70 1012.12 1013.21
1017.52 1017.67 1017.92 1017.93 1017.98 1018.20 1018.63 1018.51 1018.22 1018.84 1018.53 1017.32 1016.68 1016.04 1015.26 1014.88 1014.69 1014.39 1013.99 1013.58 1013.50 1013.74 1013.89 1014.00 1013.99 1013.28 1012.38 1012.84 1013.12 1013.74 1014.27 1015.06 1015.80 1016.12 1015.60 1013.91 1012.41 1011.98 1011.89 1012.54 1012.80 1012.03 1012.29 1013.12
1016.90 1017.20 1017.51 1017.76 1017.89 1017.98 1018.39 1018.06 1017.78 1018.43 1017.92 1017.03 1016.38 1015.77 1015.25 1015.15 1015.21 1015.24 1014.69 1014.32 1014.02 1014.33 1014.49 1014.41 1013.86 1013.70 1012.94 1012.89 1012.94 1013.25 1014.08 1015.05 1015.72 1015.87 1015.35 1013.86 1012.40 1012.61 1012.69 1012.21 1012.18 1012.28 1012.77 1013.48
1016.43 1016.63 1016.98 1017.32 1017.63 1017.85 1017.89 1018.19 1017.31 1017.37 1017.95 1016.74 1015.86 1015.42 1014.92 1014.85 1014.90 1015.42 1014.74 1014.26 1013.83 1013.56 1013.94 1013.86 1013.63 1013.77 1013.70 1013.60 1013.68 1012.99 1013.55 1013.51 1014.15 1014.44 1013.47 1012.41 1012.04 1011.92 1011.96 1011.98 1012.34 1012.76 1013.37 1014.21
1015.80 1016.10 1016.37 1016.74 1017.03 1017.40 1017.80 1017.82 1017.65 1017.64 1017.38 1016.46 1016.05 1014.84 1014.03 1014.22 1014.29 1014.60 1015.01 1014.02 1013.52 1013.14 1012.91 1013.22 1013.50 1013.84 1013.91 1014.09 1013.76 1013.23 1012.89 1012.73 1013.23 1013.40 1012.41 1012.02 1011.83 1011.92 1011.99 1012.16 1012.74 1013.11 1013.72 1014.42
1015.28 1015.61 1015.92 1016.23 1016.57 1016.99 1017.42 1017.82 1017.50 1017.59 1017.58 1016.63 1014.67 1013.56 1013.33 1012.92 1013.45 1013.91 1014.14 1014.02 1013.72 1013.68 1013.26 1013.39 1013.79 1014.03 1013.52 1013.85 1013.45 1013.31 1012.51 1012.54 1012.74 1012.82 1012.18 1011.86 1011.63 1011.65 1012.00 1012.61 1013.06 1013.61 1014.11 1014.62
1014.57 1015.03 1015.48 1015.81 1016.19 1016.63 1017.13 1017.54 1017.35 1017.17 1017.77 1016.35 1015.25 1014.51 1013.22 1012.83 1012.92 1013.43 1013.75 1013.98 1014.20 1014.16 1013.81 1013.95 1014.17 1013.69 1013.95 1014.11 1013.95 1012.97 1011.89 1011.54 1011.99 1011.81 1011.18 1011.23 1011.41 1011.32 1012.02 1012.84 1013.47 1013.86 1014.51 1015.28
1013.99 1014.55 1014.99 1015.40 1015.84 1016.48 1017.31 1017.47 1016.54 1016.71 1017.24 1017.22 1015.83 1014.42 1013.49 1013.11 1012.86 1013.21 1013.46 1013.59 1014.01 1014.04 1013.75 1013.90 1013.84 1013.54 1013.93 1014.73 1014.44 1011.54 1010.71 1010.32 1010.22 1010.59 1010.85 1011.10 1011.29 1011.60 1012.13 1012.89 1013.59 1014.26 1014.88 1015.48
1013.51 1014.06 1014.57 1015.04 1015.37 1016.29 1016.55 1016.46 1016.35 1016.25 1016.43 1016.15 1016.05 1014.62 1013.67 1012.90 1012.81 1013.15 1013.35 1013.28 1013.46 1013.78 1013.78 1013.85 1014.08 1014.13 1014.05 1014.49 1013.61 1010.90 1010.05 1009.91 1010.21 1010.27 1010.79 1011.82 1011.86 1012.33 1012.66 1013.13 1013.89 1014.43 1015.14 1015.65
1013.03 1013.70 1014.27 1014.63 1014.99 1015.88 1016.06 1015.47 1015.80 1016.28 1016.60 1015.81 1015.43 1014.45 1013.95 1012.94 1013.08 1013.21 1013.07 1013.42 1013.75 1013.83 1013.95 1014.03 1014.34 1014.58 1014.64 1013.82 1011.15 1010.43 1010.09 1009.93 1010.51 1010.63 1010.50 1011.13 1011.90 1012.58 1013.26 1013.67 1014.31 1015.12 1015.67 1016.09
1012.68 1013.33 1014.09 1014.79 1015.20 1015.55 1015.08 1014.77 1015.10 1015.50 1016.49 1015.75 1014.62 1013.83 1013.39 1012.94 1012.97 1012.90 1013.20 1013.34 1014.42 1014.30 1014.37 1014.29 1014.61 1014.58 1013.55 1010.82 1010.12 1009.92 1009.74 1009.83 1010.47 1011.03 1011.15 1011.69 1012.43 1013.21 1013.66 1014.19 1014.86 1015.44 1015.91 1016.16
1012.44 1013.51 1014.45 1014.74 1014.48 1014.35 1014.82 1015.12 1015.15 1015.03 1015.62 1015.59 1014.06 1012.57 1012.74 1012.70 1012.83 1013.05 1013.46 1013.84 1014.17 1014.71 1014.33 1014.25 1014.37 1013.04 1010.56 1009.55 1009.22 1009.06 1009.14 1009.50 1010.20 1011.13 1012.10 1012.53 1013.17 1013.59 1014.07 1014.57 1015.10 1015.49 1015.97 1016.51
1012.60 1013.39 1014.04 1014.47 1014.35 1014.68 1014.73 1014.58 1014.57 1014.70 1014.31 1013.34 1012.32 1011.48 1011.78 1011.66 1011.86 1012.53 1013.18 1013.90 1014.20 1014.57 1014.20 1014.56 1014.20 1012.19 1009.60 1008.33 1008.45 1008.72 1008.99 1009.43 1009.92 1010.29 1011.16 1011.96 1012.59 1013.45 1014.21 1014.86 1015.21 1015.76 1016.30 1016.69
1011.65 1012.71 1013.66 1014.26 1014.56 1014.57 1014.54 1013.91 1013.47 1012.93 1012.20 1011.02 1010.21 1010.29 1010.87 1011.13 1011.06 1012.11 1013.20 1013.78 1014.21 1014.14 1013.92 1014.50 1013.09 1009.93 1008.60 1008.42 1008.45 1008.84 1009.12 1009.58 1010.26 1010.67 1011.46 1012.09 1012.78 1013.43 1014.18 1014.93 1015.53 1015.98 1016.35 1016.80
1011.85 1012.72 1013.59 1014.11 1014.41 1014.05 1012.93 1011.85 1011.04 1010.24 1009.46 1008.88 1008.63 1009.65 1010.42 1011.13 1011.15 1012.15 1013.17 1013.62 1013.99 1013.60 1014.10 1013.09 1010.56 1008.81 1008.54 1008.61 1008.68 1009.23 1009.52 1009.87 1010.56 1011.23 1011.68 1012.25 1013.01 1013.65 1014.32 1015.17 1015.71 1016.18 1016.76 1017.20
1011.79 1012.64 1013.30 1013.23 1012.17 1011.19 1010.30 1009.65 1008.69 1007.52 1007.31 1007.50 1007.94 1008.84 1010.01 1010.80 1011.36 1012.08 1013.17 1013.45 1013.61 1013.81 1013.06 1010.81 1008.61 1007.89 1008.15 1008.52 1008.79 1009.32 1010.01 1010.43 1011.10 1011.73 1012.23 1012.85 1013.49 1014.26 1014.81 1015.40 1015.89 1016.51 1017.15 1017.61
1011.16 1011.64 1011.38 1010.59 1009.65 1008.95 1008.59 1008.00 1007.74 1006.57 1006.07 1006.57 1008.03 1008.96 1009.63 1010.86 1011.49 1011.87 1013.22 1013.56 1012.82 1011.37 1009.47 1008.15 1006.60 1006.99 1007.68 1008.44 1009.00 1009.64 1010.26 1010.91 1011.60 1012.14 1012.76 1013.36 1013.95 1014.63 1015.38 1015.90 1016.31 1016.81 1017.37 1017.91
1009.94 1009.86 1009.39 1008.92 1008.91 1008.33 1007.82 1007.28 1006.84 1006.25 1006.20 1006.64 1007.37 1008.72 1010.07 1010.32 1010.54 1011.23 1011.25 1011.15 1009.53 1007.73 1006.85 1005.87 1006.10 1006.87 1007.53 1008.17 1008.91 1009.73 1010.47 1011.13 1011.91 1012.51 1013.14 1013.76 1014.43 1015.06 1015.71 1016.22 1016.59 1017.07 1017.52 1018.13
1008.48 1008.29 1008.11 1007.89 1007.60 1006.72 1006.11 1005.72 1005.43 1005.40 1005.66 1006.38 1007.24 1008.39 1009.17 1009.13 1009.48 1009.46 1008.83 1007.85 1006.45 1005.35 1005.36 1005.54 1005.88 1006.49 1007.24 1007.99 1008.91 1009.80 1010.62 1011.51 1012.23 1012.88 1013.53 1014.18 1014.77 1015.32 1016.03 1016.75 1017.20 1017.37 1017.74 1018.13
Wind_Speed
3 5 8 10 9 9 3 1 2 4 4 4 3 4 5 3 0 2 3 2 6 9 5 2 2 2 2 5 3 5 5 3 2 2 0 0 1 3 5 6 4 1 5 6
2 3 6 8 9 4 3 1 4 4 5 2 3 6 10 8 3 4 1 3 1 3 3 1 4 4 2 5 5 0 4 2 2 5 6 4 1 3 3 4 4 1 6 5
4 3 5 7 8 6 1 2 3 4 2 1 3 7 12 8 4 4 1 3 2 2 4 5 4 2 2 1 1 4 2 2 5 6 4 3 3 4 4 6 4 2 4 5
6 5 5 6 8 3 3 0 5 4 3 2 3 4 7 16 12 3 3 4 4 4 4 3 2 2 3 3 3 3 4 2 2 1 2 2 1 4 5 5 5 5 3 5
7 5 6 5 6 2 2 1 2 5 3 4 4 5 5 7 12 5 4 3 6 1 3 2 3 2 3 2 2 1 1 1 2 1 2 0 2 4 5 4 4 4 2 3
5 5 7 6 5 2 1 3 4 4 5 4 3 4 5 17 4 3 3 0 3 4 3 1 2 1 3 3 5 3 3 2 3 2 2 2 5 5 5 4 3 5 4 5
6 5 6 9 6 6 2 2 2 2 4 4 4 7 11 11 7 3 2 3 0 2 4 5 3 4 5 7 5 2 1 2 3 3 4 2 4 1 2 6 4 6 7 6
7 6 5 10 9 8 2 2 2 1 4 3 7 7 5 11 6 2 2 1 3 4 2 2 2 3 2 2 3 5 3 3 2 4 2 5 3 3 1 2 2 5 7 6
8 8 5 4 10 9 2 2 2 1 0 6 4 4 4 6 4 3 1 1 2 3 2 2 3 4 4 1 3 3 3 4 5 2 3 6 4 2 1 4 4 2 8 8
9 8 8 5 6 8 4 3 3 2 4 5 9 4 3 4 4 1 2 1 1 4 1 1 3 4 1 3 4 3 2 3 5 2 2 8 5 4 2 6 9 3 5 7
10 9 11 6 5 6 5 4 4 4 4 7 10 6 2 4 1 1 4 4 2 2 1 3 4 3 3 2 5 6 7 6 4 2 1 8 6 3 6 7 2 4 4 3
11 10 10 12 9 3 9 3 2 3 4 5 2 6 4 7 7 4 3 3 2 6 2 2 2 1 1 3 3 1 1 7 6 9 8 6 8 4 3 4 4 3 6 5
12 11 10 12 10 10 6 2 1 2 2 7 9 10 17 7 7 6 4 4 2 3 3 3 2 2 5 3 6 3 3 4 3 4 4 7 9 3 5 4 5 4 6 8
13 12 12 12 12 10 7 3 1 2 2 5 6 6 7 8 8 8 5 3 4 4 1 1 2 3 3 4 4 5 6 4 5 4 6 0 5 7 8 7 7 9 6 6
14 12 12 11 12 11 4 2 3 2 3 4 4 14 6 4 8 9 7 5 2 2 2 1 4 2 3 2 3 4 6 8 6 8 8 6 5 7 9 8 7 9 8 6
13 12 11 10 12 11 3 3 3 8 5 4 3 4 5 5 6 7 6 5 4 3 3 3 1 0 4 3 4 7 7 5 8 5 4 4 5 7 6 8 9 7 9 8
13 11 10 10 11 5 4 4 2 3 5 2 3 3 4 3 4 3 2 3 3 3 2 1 3 1 4 3 5 7 7 6 6 9 9 4 2 5 8 10 8 9 7 7
13 11 9 7 8 3 4 3 7 3 2 4 4 4 2 3 2 2 3 3 2 2 2 1 3 1 3 5 8 7 4 6 7 7 5 6 7 8 7 8 7 9 7 6
13 11 6 4 2 3 3 4 8 3 3 3 3 5 5 4 3 2 1 2 2 1 3 3 5 2 8 10 8 7 8 9 10 7 9 9 9 9 9 9 8 8 6 6
13 6 3 3 3 13 7 3 3 3 2 4 4 3 4 4 2 1 3 1 4 3 5 3 3 7 6 9 9 6 8 9 11 10 7 7 7 9 8 7 7 7 6 6
3 4 3 1 10 2 3 4 4 4 4 5 5 5 4 3 4 4 3 3 2 3 5 6 4 6 6 6 9 7 8 9 9 7 6 9 11 9 8 7 7 7 7 6
8 6 5 3 1 2 4 5 4 6 7 5 7 5 4 3 3 4 2 4 2 4 4 4 6 7 5 5 8 7 9 10 9 8 9 9 10 9 8 8 7 7 7 7
4 4 4 4 4 6 7 9 6 5 5 5 6 5 5 1 1 3 3 4 5 3 2 7 8 3 5 7 7 8 8 10 10 9 8 10 9 10 10 9 7 8 7 6
4 6 7 7 7 7 5 5 6 7 5 10 11 5 5 3 3 4 5 3 5 1 4 9 5 9 8 7 7 11 10 11 12 12 12 12 11 9 9 8 7 8 7 6
5 5 8 10 6 4 6 6 4 3 5 11 5 4 4 1 4 3 5 3 6 9 8 6 4 11 12 10 8 11 11 11 10 9 10 10 10 10 8 7 7 7 6 6
4 6 4 4 4 5 4 5 6 4 7 4 3 5 3 5 4 5 10 8 9 6 6 4 8 12 12 11 11 11 10 10 9 8 9 9 9 9 8 7 7 6 7 6
6 5 7 2 3 5 6 5 5 6 10 7 4 8 10 2 3 4 6 8 5 5 3 5 10 14 14 12 12 12 12 11 9 8 9 8 8 8 9 8 4 6 6 5
Wind_Direction
320 323 334 338 339 328 335 311 355 245 102 70 201 247 259 304 131 172 272 233 225 202 183 336 277 327 314 46 322 346 1 100 152 218 261 107 216 204 145 120 269 210 136 256
203 306 328 330 335 347 320 185 251 313 90 178 238 289 304 301 256 240 134 290 7 325 224 226 219 113 268 350 18 89 353 263 74 348 350 349 223 212 131 118 87 221 121 252
242 217 301 314 328 325 29 31 340 325 70 214 303 301 290 283 353 297 246 262 297 280 255 225 185 164 218 283 248 241 192 270 156 183 198 170 215 208 179 120 108 213 209 169
308 230 241 296 318 350 91 82 248 204 269 307 281 245 264 286 294 226 221 305 232 276 298 319 214 129 178 224 232 254 131 85 54 131 91 27 358 181 179 187 191 145 193 172
329 251 224 256 305 74 80 161 10 353 286 301 29 318 266 296 283 227 250 201 312 296 287 206 281 285 193 193 219 252 14 250 5 181 133 232 282 265 216 225 245 267 129 131
279 313 235 220 258 139 244 290 324 116 269 318 62 251 340 324 352 346 81 209 353 281 210 290 255 236 85 121 160 198 139 115 73 268 261 324 305 229 220 206 170 155 202 209
243 274 249 207 215 198 126 276 33 51 270 209 242 300 322 314 286 218 350 38 328 246 310 315 29 53 74 67 41 68 133 93 99 206 22 259 250 38 246 219 169 124 108 142
231 231 272 208 203 210 156 280 68 6 280 268 304 313 327 317 275 81 106 343 256 311 19 27 12 323 319 23 21 23 59 98 93 117 201 296 268 264 206 131 239 181 155 159
232 216 231 247 203 202 144 253 169 301 125 245 271 314 289 284 275 346 326 283 298 32 98 92 220 227 221 247 353 357 38 78 114 112 139 217 254 189 108 69 298 282 143 170
230 218 210 230 230 204 167 251 153 131 262 264 278 246 257 286 341 286 313 236 312 58 83 135 185 272 176 170 185 173 73 24 162 182 222 285 245 163 46 88 235 153 138 169
226 219 206 213 185 224 172 254 208 174 236 265 268 279 260 326 12 248 284 26 315 71 201 156 232 179 255 45 164 177 164 140 204 119 120 283 159 83 167 212 124 133 78 91
225 216 213 201 195 164 190 242 251 148 225 263 281 261 257 189 190 170 273 227 213 211 147 237 111 336 33 157 242 325 220 179 185 168 213 234 198 166 175 161 143 128 114 126
218 211 211 206 213 192 178 206 275 2 255 266 252 260 251 204 189 168 175 297 326 302 187 188 199 193 120 181 246 211 260 172 177 62 253 205 199 151 162 137 130 125 116 134
220 211 210 211 206 188 165 181 226 143 290 269 268 265 216 196 168 182 197 245 326 282 352 133 141 147 150 209 226 184 201 125 182 264 277 61 251 197 167 143 116 109 122 116
216 211 208 211 200 190 156 186 225 193 183 278 299 319 244 178 163 194 206 215 246 268 296 124 228 202 85 328 41 252 189 187 161 223 220 170 233 189 149 138 142 143 122 106
208 203 203 204 194 149 112 313 226 201 188 278 274 266 248 210 181 194 206 197 213 222 196 222 257 262 112 130 234 255 230 203 173 205 138 146 111 123 122 129 144 127 125 125
201 191 198 199 201 152 173 199 160 57 173 191 263 259 269 231 173 192 170 151 206 170 241 192 159 225 103 132 228 248 239 230 143 144 112 70 134 151 145 126 130 125 128 132
193 190 195 202 210 149 265 248 181 165 269 221 207 247 278 206 179 153 178 150 82 277 198 42 134 24 76 257 240 250 311 113 132 148 97 143 128 113 107 113 115 112 125 128
181 181 143 86 113 195 210 221 177 138 137 268 218 177 219 137 227 150 50 139 140 312 180 225 102 213 224 227 222 217 200 177 165 130 103 111 122 126 128 125 120 128 151 163
164 100 137 196 211 122 125 56 221 129 155 219 258 186 178 150 185 194 107 54 168 164 233 95 145 251 252 237 217 213 190 155 136 120 133 134 132 143 140 148 151 156 151 123
99 147 162 140 136 118 184 216 184 170 215 204 228 165 153 235 136 154 180 181 163 139 234 146 245 266 241 229 188 181 149 148 163 124 127 145 148 147 140 144 141 128 123 117
154 131 103 99 149 198 216 197 200 196 219 214 173 168 161 209 131 110 227 167 74 210 138 100 253 247 209 161 142 146 139 134 133 137 138 142 141 143 134 132 126 116 118 109
77 82 122 155 174 218 210 196 194 187 206 207 150 128 132 99 65 96 118 130 205 83 78 223 228 223 172 152 127 125 120 114 115 110 108 111 110 115 122 116 114 113 103 109
119 152 184 203 198 224 199 217 192 215 154 157 166 120 138 184 119 131 125 230 93 130 231 229 232 189 170 155 135 127 131 121 124 124 119 116 115 115 109 113 116 113 117 115
163 165 210 208 227 212 216 222 289 265 164 154 123 57 100 158 117 116 91 53 227 210 222 227 210 158 151 150 135 135 132 130 130 129 123 123 121 119 116 116 117 118 118 114
160 206 212 211 152 262 255 229 229 205 164 132 71 109 125 218 155 125 207 155 218 232 215 200 138 147 149 144 137 138 135 133 134 130 133 129 126 130 130 119 117 115 121 117
199 200 209 233 265 213 215 207 213 176 150 188 148 150 203 77 148 213 187 208 217 216 165 141 149 152 149 140 138 139 137 135 133 124 122 119 121 115 112 118 119 118 118 129